[[{"header":{"parameterUnit":"m.s-1","parameterCategory":2,"la1":30.2992,"la2":30.254,"lo1":-89.0895,"lo2":-89.0443,"dy":0.0025,"dx":0.0025,"nx":19,"ny":19,"refTime":"2026-04-18T09:00:00:Z","depth":"0","parameterNumber":2,"parameterNumberName":"U-component_of_CURRENTS"},"data":[0,0,0,-0.133,-0.1331,-0.1349,-0.1349,-0.1348,-0.1348,0,0,0,0,0,0,0,0,0,0,0,-0.1315,-0.1315,-0.133,-0.1331,-0.1349,-0.1349,-0.1348,-0.1348,0,0,0,0,0,0,0,0,0,0,0,-0.1315,-0.1315,-0.1315,-0.1331,-0.1349,-0.1349,-0.1348,-0.1339,0,0,0,0,0,0,0,0,0,0,-0.1323,-0.131,-0.1315,-0.1315,-0.1331,-0.1349,-0.1349,-0.1338,-0.1339,-0.1334,0,-0.1336,0,-0.1348,-0.1348,-0.1348,0,0,0,-0.1325,-0.1309,-0.1322,-0.1315,-0.1331,-0.1349,-0.1339,-0.1339,-0.134,-0.1335,-0.1336,-0.1336,-0.1348,-0.1348,-0.1348,-0.1382,-0.1382,0,0,-0.1324,-0.131,-0.1322,-0.1323,-0.1334,-0.1338,-0.134,-0.134,-0.1334,-0.1336,-0.1337,-0.1348,-0.1348,-0.1348,-0.1382,-0.1382,0,0,0,-0.1325,-0.131,-0.1323,-0.1322,-0.1331,-0.1339,-0.134,-0.1334,-0.1341,-0.1337,-0.1348,-0.1348,-0.1348,-0.1381,-0.1382,-0.1398,0,0,0,-0.1324,-0.1311,-0.1323,-0.1314,-0.1331,-0.1335,-0.1334,-0.134,-0.1341,-0.1348,-0.1348,-0.1348,-0.1381,-0.1382,-0.1397,-0.1389,0,0,0,-0.1315,-0.131,-0.1313,-0.1313,-0.1326,-0.1336,-0.1342,-0.1341,-0.1348,-0.1348,-0.1348,-0.1381,-0.1381,-0.1395,-0.1388,-0.1256,0,0,0,-0.1299,-0.1319,-0.1313,-0.1352,-0.1326,-0.1382,-0.1342,-0.1377,-0.1385,-0.1348,-0.1381,-0.1382,-0.1395,-0.1387,-0.1258,-0.0847,-0.0807,0,0,-0.1324,-0.1321,-0.1353,-0.1349,-0.14,-0.1379,-0.1419,-0.1408,-0.1392,-0.1377,-0.1378,-0.1397,-0.1388,-0.1256,-0.0901,-0.0858,0,0,0,-0.1362,-0.1362,-0.1387,-0.141,-0.1451,-0.1444,-0.1446,-0.1436,-0.1421,-0.1401,-0.1411,-0.1405,-0.132,-0.1077,-0.1045,-0.0907,-0.1386,-0.1386,-0.1386,-0.1321,-0.1368,-0.1402,-0.1442,-0.1474,-0.1492,-0.1483,-0.1459,-0.1462,-0.1459,-0.143,-0.1359,-0.1106,-0.1075,-0.0942,-0.145,-0.145,-0.145,-0.145,-0.1315,-0.1322,-0.1379,-0.1421,-0.1447,-0.1471,-0.1487,-0.148,-0.1416,-0.1459,-0.1374,-0.1123,-0.1038,-0.091,-0.1452,-0.1451,-0.1451,-0.1451,-0.1451,-0.1248,-0.1257,-0.1295,-0.1349,-0.1393,-0.1449,-0.1361,-0.1427,-0.14,-0.1362,-0.0992,-0.0986,-0.085,-0.1284,-0.1284,-0.1283,-0.1283,-0.1282,-0.1282,-0.1146,-0.1191,-0.1195,-0.1284,-0.1304,-0.1312,-0.1297,-0.117,-0.0992,-0.0951,-0.0946,-0.0782,-0.1306,-0.1287,-0.1273,-0.1275,-0.1276,-0.1276,-0.1277,-0.1028,-0.1063,-0.1063,-0.1077,-0.1089,-0.0939,-0.0951,-0.0541,-0.0452,-0.0259,-0.0238,-0.0681,-0.0604,-0.0626,-0.0589,-0.0395,-0.0395,-0.0395,-0.0395,-0.0926,-0.0957,-0.0891,-0.0851,-0.0775,-0.0731,-0.0185,0.0081,0.0262,0.0345,0.0189,0.0225,0.0184,0.0302,0.0259,0.031,0.0728,0.0729,0.0729,-0.0822,-0.0832,-0.0716,-0.0693,-0.0607,-0.0358,0.0164,0.0557,0.0782,0.0766,0.0291,0.0244,0.0267,0.0191,0.0345,0.0274,0.0346,0,0]},{"header":{"parameterUnit":"m.s-1","parameterCategory":2,"la1":30.2992,"la2":30.254,"lo1":-89.0895,"lo2":-89.0443,"dy":0.0025,"dx":0.0025,"nx":19,"ny":19,"refTime":"2026-04-18T09:00:00:Z","depth":"0","parameterNumber":3,"parameterNumberName":"V-component_of_CURRENTS"},"data":[0,0,0,-0.029,-0.0289,-0.0233,-0.0232,-0.0143,-0.0142,0,0,0,0,0,0,0,0,0,0,0,-0.0311,-0.0311,-0.029,-0.0289,-0.0233,-0.0232,-0.0143,-0.0142,0,0,0,0,0,0,0,0,0,0,0,-0.0311,-0.0311,-0.0311,-0.0289,-0.0233,-0.0232,-0.0143,-0.0188,0,0,0,0,0,0,0,0,0,0,-0.0244,-0.0275,-0.0311,-0.0311,-0.0289,-0.0233,-0.0232,-0.019,-0.0185,-0.0167,0,-0.0165,0,-0.0154,-0.0137,-0.0136,0,0,0,-0.028,-0.0279,-0.026,-0.0311,-0.0289,-0.0233,-0.0256,-0.0188,-0.0182,-0.016,-0.0164,-0.016,-0.0153,-0.0136,-0.0136,-0.0083,-0.0083,0,0,-0.0283,-0.0301,-0.0264,-0.0257,-0.0282,-0.0258,-0.0254,-0.0184,-0.0184,-0.0163,-0.0158,-0.0151,-0.0136,-0.0135,-0.0083,-0.0083,0,0,0,-0.0299,-0.0304,-0.0286,-0.026,-0.0253,-0.0256,-0.0252,-0.0187,-0.018,-0.0157,-0.015,-0.0135,-0.0134,-0.0083,-0.0083,-0.0097,0,0,0,-0.03,-0.0313,-0.0288,-0.0298,-0.0255,-0.0223,-0.0256,-0.0185,-0.0177,-0.0151,-0.0135,-0.0133,-0.0083,-0.0083,-0.0097,-0.0054,0,0,0,-0.0313,-0.0314,-0.0309,-0.0299,-0.0278,-0.0224,-0.0213,-0.0183,-0.0173,-0.0136,-0.0133,-0.0083,-0.0083,-0.0096,-0.0055,0.0127,0,0,0,-0.0329,-0.0353,-0.031,-0.0339,-0.0279,-0.0271,-0.0213,-0.0206,-0.0184,-0.0135,-0.0083,-0.0083,-0.0096,-0.0056,0.0124,0.0395,0.0433,0,0,-0.0374,-0.0359,-0.0378,-0.0339,-0.0351,-0.0277,-0.0261,-0.0209,-0.0172,-0.0102,-0.0101,-0.0097,-0.0055,0.0126,0.039,0.0429,0,0,0,-0.0403,-0.0411,-0.0411,-0.0403,-0.0377,-0.0304,-0.0259,-0.0212,-0.0144,-0.0159,-0.0095,-0.0066,0.005,0.0204,0.0234,0.0262,-0.0083,-0.0083,-0.0083,-0.0465,-0.0453,-0.0474,-0.0443,-0.0414,-0.0327,-0.0259,-0.0176,-0.0169,-0.0138,-0.0079,0.005,0.0208,0.0235,0.0255,-0.0105,-0.0105,-0.0105,-0.0105,-0.0525,-0.0533,-0.0493,-0.0508,-0.042,-0.0377,-0.0225,-0.0183,-0.0012,-0.0073,0.004,0.0177,0.0269,0.0278,-0.0106,-0.0106,-0.0106,-0.0106,-0.0106,-0.056,-0.0559,-0.0567,-0.055,-0.0468,-0.0365,-0.0092,-0.0039,0.0018,0.0099,0.0397,0.0401,0.0426,0.0194,0.0195,0.0196,0.0197,0.0197,0.0198,-0.0586,-0.059,-0.0598,-0.057,-0.0491,-0.0286,0.0005,0.0227,0.0447,0.0465,0.0469,0.0491,0.0145,0.0152,0.0212,0.021,0.0208,0.0207,0.0206,-0.0592,-0.0617,-0.061,-0.0555,-0.0319,0.0009,0.0282,0.0817,0.0994,0.1156,0.0962,0.0704,0.0781,0.0759,0.0783,0.1004,0.1004,0.1004,0.1004,-0.0593,-0.061,-0.0541,-0.0383,-0.0112,0.0195,0.0839,0.1279,0.1457,0.1433,0.1296,0.1224,0.119,0.1282,0.1248,0.1277,0.1618,0.1619,0.1619,-0.0564,-0.0559,-0.0449,-0.0315,0.0018,0.0452,0.1002,0.157,0.1738,0.163,0.1278,0.1252,0.1115,0.106,0.117,0.1119,0.1154,0,0]}],[{"header":{"parameterUnit":"m.s-1","parameterCategory":2,"la1":30.2992,"la2":30.254,"lo1":-89.0895,"lo2":-89.0443,"dy":0.0025,"dx":0.0025,"nx":19,"ny":19,"refTime":"2026-04-18T09:00:00:Z","depth":"2","parameterNumber":2,"parameterNumberName":"U-component_of_CURRENTS"},"data":[0,0,0,-0.1298,-0.1299,-0.1313,-0.1313,-0.1313,-0.1313,0,0,0,0,0,0,0,0,0,0,0,-0.1288,-0.1288,-0.1298,-0.1299,-0.1313,-0.1313,-0.1313,-0.1313,0,0,0,0,0,0,0,0,0,0,0,-0.1288,-0.1288,-0.1288,-0.1299,-0.1313,-0.1313,-0.1313,-0.1306,0,0,0,0,0,0,0,0,0,0,-0.1293,-0.1285,-0.1288,-0.1288,-0.1299,-0.1313,-0.1313,-0.1306,-0.1306,-0.1303,0,-0.1306,0,-0.1314,-0.1313,-0.1313,0,0,0,-0.1294,-0.1285,-0.1294,-0.1289,-0.1299,-0.1313,-0.1305,-0.1306,-0.1307,-0.1304,-0.1306,-0.1306,-0.1314,-0.1313,-0.1313,-0.1353,-0.1353,0,0,-0.1293,-0.1285,-0.1293,-0.1294,-0.1303,-0.1305,-0.1306,-0.1307,-0.1304,-0.1306,-0.1306,-0.1314,-0.1313,-0.1313,-0.1352,-0.1353,0,0,0,-0.1294,-0.1285,-0.1294,-0.1294,-0.1301,-0.1306,-0.1307,-0.1304,-0.1309,-0.1306,-0.1314,-0.1313,-0.1313,-0.1352,-0.1352,-0.1362,0,0,0,-0.1293,-0.1286,-0.1294,-0.1288,-0.1301,-0.1304,-0.1304,-0.1308,-0.1309,-0.1314,-0.1313,-0.1313,-0.1351,-0.1352,-0.1361,-0.1352,0,0,0,-0.1288,-0.1285,-0.1288,-0.1288,-0.1298,-0.1305,-0.1309,-0.1309,-0.1313,-0.1313,-0.1313,-0.1351,-0.1352,-0.136,-0.1351,-0.1295,0,0,0,-0.1277,-0.1293,-0.1288,-0.1312,-0.1298,-0.1341,-0.1309,-0.1334,-0.134,-0.1313,-0.1351,-0.1352,-0.136,-0.135,-0.1295,-0.117,-0.1158,0,0,-0.1297,-0.1295,-0.1313,-0.1309,-0.135,-0.1339,-0.1375,-0.1363,-0.1352,-0.1348,-0.1349,-0.1361,-0.1351,-0.1295,-0.1229,-0.1215,0,0,0,-0.1319,-0.1323,-0.1338,-0.1356,-0.1386,-0.139,-0.1397,-0.1389,-0.1381,-0.136,-0.138,-0.1373,-0.1336,-0.1262,-0.1252,-0.1357,-0.1357,-0.1357,-0.1357,-0.1305,-0.1333,-0.1358,-0.1388,-0.1415,-0.1433,-0.1427,-0.1416,-0.1418,-0.1417,-0.1395,-0.1379,-0.1304,-0.1294,-0.1418,-0.1418,-0.1418,-0.1418,-0.1418,-0.1309,-0.1311,-0.1354,-0.1383,-0.1408,-0.1434,-0.1443,-0.1435,-0.1405,-0.1423,-0.1387,-0.1295,-0.1282,-0.1419,-0.1419,-0.1419,-0.1419,-0.1418,-0.1418,-0.127,-0.1275,-0.1302,-0.1339,-0.1372,-0.1411,-0.1412,-0.1425,-0.1396,-0.1378,-0.1257,-0.1255,-0.1342,-0.1351,-0.135,-0.135,-0.135,-0.135,-0.135,-0.1202,-0.1236,-0.1231,-0.1288,-0.1293,-0.1344,-0.1389,-0.1362,-0.1281,-0.1245,-0.1243,-0.1354,-0.1357,-0.1338,-0.1346,-0.1346,-0.1347,-0.1347,-0.1347,-0.1135,-0.1144,-0.113,-0.113,-0.117,-0.1158,-0.1276,-0.1201,-0.116,-0.1064,-0.1147,-0.1153,-0.1121,-0.1128,-0.1104,-0.105,-0.105,-0.105,-0.105,-0.1064,-0.1079,-0.1012,-0.0979,-0.0998,-0.1052,-0.0973,-0.0961,-0.0939,-0.0912,-0.0919,-0.0928,-0.0941,-0.0901,-0.0914,-0.0886,-0.0776,-0.0776,-0.0776,-0.1003,-0.0992,-0.0908,-0.089,-0.0883,-0.0914,-0.0781,-0.0638,-0.06,-0.0771,-0.0935,-0.1019,-0.105,-0.1065,-0.102,-0.1034,-0.0996,0,0]},{"header":{"parameterUnit":"m.s-1","parameterCategory":2,"la1":30.2992,"la2":30.254,"lo1":-89.0895,"lo2":-89.0443,"dy":0.0025,"dx":0.0025,"nx":19,"ny":19,"refTime":"2026-04-18T09:00:00:Z","depth":"2","parameterNumber":3,"parameterNumberName":"V-component_of_CURRENTS"},"data":[0,0,0,-0.0357,-0.0356,-0.0299,-0.0298,-0.0208,-0.0208,0,0,0,0,0,0,0,0,0,0,0,-0.0378,-0.0378,-0.0357,-0.0356,-0.0299,-0.0298,-0.0208,-0.0208,0,0,0,0,0,0,0,0,0,0,0,-0.0378,-0.0378,-0.0377,-0.0355,-0.0299,-0.0298,-0.0209,-0.0254,0,0,0,0,0,0,0,0,0,0,-0.031,-0.0342,-0.0378,-0.0377,-0.0355,-0.0299,-0.0298,-0.0256,-0.0251,-0.0232,0,-0.023,0,-0.0219,-0.0202,-0.0202,0,0,0,-0.0347,-0.0346,-0.0326,-0.0377,-0.0355,-0.0299,-0.0322,-0.0253,-0.0247,-0.0225,-0.0229,-0.0225,-0.0218,-0.0201,-0.0201,-0.0146,-0.0146,0,0,-0.035,-0.0369,-0.033,-0.0323,-0.0348,-0.0324,-0.032,-0.025,-0.025,-0.0228,-0.0223,-0.0216,-0.0201,-0.02,-0.0146,-0.0146,0,0,0,-0.0365,-0.0371,-0.0353,-0.0326,-0.0319,-0.0322,-0.0318,-0.0253,-0.0246,-0.0222,-0.0215,-0.02,-0.0199,-0.0146,-0.0146,-0.0175,0,0,0,-0.0366,-0.038,-0.0354,-0.0365,-0.032,-0.0289,-0.0323,-0.025,-0.0242,-0.0216,-0.02,-0.0199,-0.0146,-0.0146,-0.0174,-0.0184,0,0,0,-0.0379,-0.0382,-0.0376,-0.0366,-0.0345,-0.029,-0.0278,-0.0248,-0.0238,-0.0202,-0.0198,-0.0146,-0.0146,-0.0173,-0.0183,-0.0102,0,0,0,-0.0397,-0.0409,-0.0377,-0.0385,-0.0345,-0.0323,-0.0279,-0.026,-0.0235,-0.02,-0.0146,-0.0146,-0.0173,-0.0182,-0.0103,-0.0125,-0.0124,0,0,-0.0425,-0.0413,-0.0417,-0.0387,-0.0383,-0.033,-0.0312,-0.0262,-0.0226,-0.0166,-0.0165,-0.0174,-0.0183,-0.0102,-0.0129,-0.0127,0,0,0,-0.0434,-0.044,-0.0431,-0.042,-0.0388,-0.0348,-0.03,-0.0265,-0.0211,-0.0212,-0.0168,-0.0172,-0.0119,-0.0135,-0.0133,-0.0147,-0.0147,-0.0147,-0.0147,-0.0499,-0.0476,-0.0486,-0.0453,-0.0427,-0.0362,-0.0319,-0.026,-0.0229,-0.021,-0.019,-0.0145,-0.0165,-0.0163,-0.0185,-0.0186,-0.0186,-0.0186,-0.0186,-0.0554,-0.0563,-0.0525,-0.0528,-0.047,-0.0442,-0.0333,-0.0294,-0.0194,-0.0202,-0.0149,-0.0161,-0.0163,-0.0188,-0.0188,-0.0187,-0.0187,-0.0187,-0.0187,-0.0604,-0.0607,-0.0604,-0.06,-0.0568,-0.0491,-0.0431,-0.0341,-0.0219,-0.0178,-0.0121,-0.0121,-0.0129,-0.0124,-0.0124,-0.0124,-0.0124,-0.0123,-0.0123,-0.0661,-0.0656,-0.0688,-0.0672,-0.0682,-0.0651,-0.0485,-0.0388,-0.0216,-0.0142,-0.0141,-0.0122,-0.0124,-0.0123,-0.0119,-0.012,-0.012,-0.0121,-0.0121,-0.0729,-0.0725,-0.0777,-0.0805,-0.0825,-0.0805,-0.0672,-0.0411,-0.024,-0.0141,-0.0095,-0.0097,-0.0071,-0.0073,-0.007,-0.0051,-0.0051,-0.0051,-0.0051,-0.0778,-0.0778,-0.0854,-0.0911,-0.0948,-0.0879,-0.0733,-0.0519,-0.0263,-0.0188,-0.0183,-0.0244,-0.0243,-0.0229,-0.0227,-0.0228,-0.0251,-0.0251,-0.0252,-0.0829,-0.0846,-0.0913,-0.0951,-0.0994,-0.0941,-0.0767,-0.0472,-0.0223,-0.0264,-0.0263,-0.0055,-0.0132,-0.0135,-0.0104,-0.0105,-0.0102,0,0]}],[{"header":{"parameterUnit":"m.s-1","parameterCategory":2,"la1":30.2992,"la2":30.254,"lo1":-89.0895,"lo2":-89.0443,"dy":0.0025,"dx":0.0025,"nx":19,"ny":19,"refTime":"2026-04-18T09:00:00:Z","depth":"4","parameterNumber":2,"parameterNumberName":"U-component_of_CURRENTS"},"data":[0,0,0,-0.1027,-0.1028,-0.108,-0.108,-0.1106,-0.1106,0,0,0,0,0,0,0,0,0,0,0,-0.1012,-0.1013,-0.1026,-0.1028,-0.108,-0.108,-0.1106,-0.1106,0,0,0,0,0,0,0,0,0,0,0,-0.1012,-0.1013,-0.1013,-0.1028,-0.108,-0.108,-0.1106,-0.1076,0,0,0,0,0,0,0,0,0,0,-0.1031,-0.1026,-0.1012,-0.1013,-0.1028,-0.108,-0.108,-0.1075,-0.1078,-0.1072,0,-0.1087,0,-0.1096,-0.1107,-0.1107,0,0,0,-0.1026,-0.1024,-0.1036,-0.1013,-0.1029,-0.1079,-0.1056,-0.1077,-0.108,-0.1075,-0.1088,-0.1089,-0.1097,-0.1107,-0.1107,-0.1135,-0.1135,0,0,-0.1023,-0.1021,-0.1034,-0.1038,-0.1051,-0.1054,-0.1057,-0.1079,-0.1087,-0.1088,-0.109,-0.1097,-0.1107,-0.1107,-0.1135,-0.1135,0,0,0,-0.1016,-0.1019,-0.1031,-0.1037,-0.1049,-0.1056,-0.1059,-0.1086,-0.109,-0.109,-0.1097,-0.1107,-0.1108,-0.1134,-0.1135,-0.1164,0,0,0,-0.1014,-0.1016,-0.103,-0.103,-0.1049,-0.1074,-0.1065,-0.1088,-0.1091,-0.1097,-0.1107,-0.1108,-0.1134,-0.1135,-0.1163,-0.1153,0,0,0,-0.1008,-0.1015,-0.1023,-0.103,-0.1053,-0.1074,-0.108,-0.1089,-0.1095,-0.1107,-0.1108,-0.1134,-0.1135,-0.1162,-0.1152,-0.1102,0,0,0,-0.1001,-0.102,-0.1024,-0.1047,-0.1052,-0.1081,-0.108,-0.1102,-0.1114,-0.1108,-0.1134,-0.1135,-0.1161,-0.1151,-0.1102,-0.0961,0,0,0,-0.1018,-0.1022,-0.1034,-0.1038,-0.1071,-0.1073,-0.1105,-0.112,-0.1117,-0.1123,-0.1124,-0.1163,-0.1152,-0.1102,-0.0988,0,0,0,0,-0.1034,-0.1045,-0.1054,-0.1077,-0.1094,-0.1118,-0.1131,-0.1131,-0.1149,-0.1127,-0.1164,-0.1155,-0.1123,-0.1042,-0.1137,-0.1137,-0.1137,-0.1137,-0.1137,-0.1044,-0.1057,-0.1081,-0.1104,-0.1127,-0.115,-0.116,-0.1164,-0.1165,-0.1176,-0.1181,-0.1164,-0.1083,-0.1194,-0.1194,-0.1195,-0.1195,-0.1195,-0.1195,-0.1054,-0.1056,-0.1096,-0.1125,-0.1155,-0.1183,-0.1196,-0.1198,-0.1181,-0.1199,-0.1166,-0.1083,-0.1198,-0.1197,-0.1197,-0.1196,-0.1196,-0.1196,-0.1196,-0.1034,-0.1036,-0.1072,-0.1113,-0.1155,-0.1188,-0.1167,-0.1193,-0.119,-0.118,-0.1049,-0.1156,-0.1147,-0.1156,-0.1155,-0.1155,-0.1155,-0.1155,-0.1155,-0.0983,-0.102,-0.1029,-0.1086,-0.1093,-0.1111,-0.1139,-0.1112,-0.1129,-0.104,-0.1169,-0.1149,-0.115,-0.1143,-0.1151,-0.1152,-0.1152,-0.1152,-0.1153,-0.0927,-0.0947,-0.0944,-0.095,-0.0958,-0.0955,-0.1018,-0.0966,-0.0912,-0.0856,-0.0947,-0.0959,-0.0916,-0.0922,-0.0906,-0.0844,-0.0842,-0.084,0,-0.0869,-0.0885,-0.0843,-0.0808,-0.0771,-0.0837,-0.0744,-0.0758,-0.0778,-0.0746,-0.0901,-0.1005,-0.1012,-0.0969,-0.0971,-0.0953,0,0,0,-0.0815,-0.081,-0.0745,-0.0725,-0.0668,-0.0654,-0.0713,-0.0673,-0.0788,-0.0726,-0.0793,-0.0805,-0.1042,-0.114,-0.11,-0.1102,-0.1087,0,0]},{"header":{"parameterUnit":"m.s-1","parameterCategory":2,"la1":30.2992,"la2":30.254,"lo1":-89.0895,"lo2":-89.0443,"dy":0.0025,"dx":0.0025,"nx":19,"ny":19,"refTime":"2026-04-18T09:00:00:Z","depth":"4","parameterNumber":3,"parameterNumberName":"V-component_of_CURRENTS"},"data":[0,0,0,-0.0228,-0.0228,-0.018,-0.018,-0.0092,-0.0091,0,0,0,0,0,0,0,0,0,0,0,-0.0246,-0.0246,-0.0228,-0.0228,-0.018,-0.018,-0.0092,-0.0091,0,0,0,0,0,0,0,0,0,0,0,-0.0246,-0.0246,-0.0246,-0.0227,-0.018,-0.018,-0.0092,-0.0132,0,0,0,0,0,0,0,0,0,0,-0.0181,-0.0212,-0.0246,-0.0246,-0.0227,-0.0181,-0.018,-0.0135,-0.013,-0.0109,0,-0.011,0,-0.0101,-0.0086,-0.0085,0,0,0,-0.0218,-0.0216,-0.0198,-0.0246,-0.0227,-0.0181,-0.0199,-0.0132,-0.0127,-0.0103,-0.0108,-0.0105,-0.01,-0.0085,-0.0085,-0.0014,-0.0014,0,0,-0.022,-0.0239,-0.0202,-0.0195,-0.0224,-0.02,-0.0198,-0.0129,-0.013,-0.0108,-0.0103,-0.0098,-0.0085,-0.0084,-0.0014,-0.0014,0,0,0,-0.0234,-0.0241,-0.0225,-0.0198,-0.0193,-0.0199,-0.0196,-0.0133,-0.0127,-0.0102,-0.0097,-0.0084,-0.0083,-0.0014,-0.0014,-0.0073,0,0,0,-0.0235,-0.0249,-0.0226,-0.0237,-0.0195,-0.0169,-0.0202,-0.0132,-0.0124,-0.0098,-0.0084,-0.0082,-0.0014,-0.0014,-0.0072,-0.0113,0,0,0,-0.0247,-0.0251,-0.0247,-0.0238,-0.0221,-0.017,-0.0159,-0.013,-0.0121,-0.0085,-0.0082,-0.0014,-0.0014,-0.0071,-0.011,-0.0137,0,0,0,-0.0263,-0.0266,-0.0248,-0.0242,-0.0222,-0.0178,-0.0159,-0.0123,-0.0093,-0.0084,-0.0014,-0.0014,-0.007,-0.0108,-0.0135,-0.0161,0,0,0,-0.0274,-0.0268,-0.026,-0.0243,-0.0222,-0.0184,-0.016,-0.0116,-0.008,-0.0033,-0.0032,-0.0072,-0.011,-0.0137,-0.0138,0,0,0,0,-0.0267,-0.0273,-0.0257,-0.0245,-0.0202,-0.019,-0.0136,-0.0114,-0.008,-0.0063,-0.0048,-0.007,-0.0085,-0.0093,-0.0012,-0.0012,-0.0012,-0.0012,-0.0012,-0.0326,-0.0296,-0.0297,-0.0265,-0.0238,-0.0186,-0.017,-0.0132,-0.0084,-0.0078,-0.01,-0.0137,-0.0144,-0.0069,-0.0069,-0.0069,-0.007,-0.007,-0.007,-0.0369,-0.0375,-0.0348,-0.0344,-0.0312,-0.0291,-0.0223,-0.0194,-0.0167,-0.0125,-0.0137,-0.0131,-0.0075,-0.0074,-0.0073,-0.0073,-0.0072,-0.0072,-0.0072,-0.0421,-0.0422,-0.0423,-0.0431,-0.0433,-0.0379,-0.0396,-0.032,-0.024,-0.0243,-0.0238,-0.0178,-0.0195,-0.0245,-0.0245,-0.0245,-0.0246,-0.0246,-0.0246,-0.0479,-0.0476,-0.0516,-0.0522,-0.0545,-0.0554,-0.05,-0.0478,-0.0378,-0.0315,-0.0263,-0.0196,-0.019,-0.0203,-0.0251,-0.025,-0.0249,-0.0249,-0.0248,-0.0537,-0.0543,-0.0601,-0.0639,-0.0681,-0.0674,-0.0657,-0.0568,-0.0544,-0.0478,-0.0345,-0.0339,-0.0323,-0.0314,-0.0331,-0.0419,-0.0419,-0.042,0,-0.0585,-0.0588,-0.0671,-0.073,-0.0763,-0.0737,-0.0721,-0.0671,-0.0527,-0.0494,-0.0517,-0.0369,-0.0362,-0.0346,-0.0339,-0.036,0,0,0,-0.0631,-0.065,-0.0716,-0.0755,-0.0781,-0.0715,-0.0699,-0.0655,-0.0554,-0.054,-0.0434,-0.043,-0.0405,-0.0264,-0.0226,-0.0219,-0.0238,0,0]}]]